Location: Regensburg
(48.4565°N, 10.3217°E)
Time: 12:13:20
(UTC+01:00)

ISS - Pass Details

Date: 12 January 2018
Orbit: 402 x 407 km, 51.6° (Epoch: 19 January)

Event Time Altitude Azimuth Distance (km) Brightness Sun altitude
Exits shadow 06:23:56 41° 255° (WSW) 599 -3.4 -16.5°
Maximum altitude 06:24:40 52° 209° (SSW) 511 -3.5 -16.4°
Drops below altitude 10° 06:27:52 10° 132° (SE) 1,463 0.0 -15.9°
Sets 06:29:58 0° 128° (SE) 2,321 1.3 -15.5°
